Location: Pasadena-CA
(34.1440°N, 118.1100°W)
Time: 13:27:28
(UTC-07:00)

Oscar 19 - Pass Details

Date: 05 July 2022
Orbit: 773 x 790 km, 98.8° (Epoch: 17 August)

Event Time Altitude Azimuth Distance (km) Brightness Sun altitude
Rises 04:40:37 0° 8° (N) 3,254 14.6 -12.2°
Reaches altitude 10° 04:42:57 10° 4° (N) 2,323 13.7 -11.8°
Maximum altitude 04:47:58 58° 286° (WNW) 900 10.8 -11.0°
Enters shadow 04:52:57 10° 209° (SSW) 2,311 12.5 -10.2°
